{"data":{"norad_id":58715,"intl_designator":"2024-002L","name":"STARLINK-31102","alt_names":[],"object_type":"PAYLOAD","status":"ACTIVE","operator":null,"country":"US","launch_date":"2024-01-03","launch_site_code":"AFWTR","launch_vehicle":null,"mission":null,"orbit_class":"UNKNOWN","rcs_meters":null,"size_class":null,"mass_kg":null,"dimensions":null,"purposes":["comms"],"wikipedia_slug":null,"has_3d_model":false,"image_url":null,"decayed_at":null,"tle_current":{"epoch":"2026-09-20T14:24:40.378176Z","epoch_age_seconds":141106,"freshness":"FRESH","line1":"1 58715U 24002L   26263.60046734  .00002194  00000+0  76085-4 0  9998","line2":"2 58715  53.1618  41.2842 0001250  77.1863 282.9279 15.34389167151905","mean_motion":15.34389167,"eccentricity":0.000125,"inclination_deg":53.1618,"raan_deg":41.2842,"arg_perigee_deg":77.1863,"mean_anomaly_deg":282.9279,"bstar":7.6085e-5,"rev_number":15190,"period_min":93.848420659503,"perigee_km":461.8803293007,"apogee_km":463.59054741029,"semimajor_km":6840.8724383555,"source":"CELESTRAK","updated_at":"2026-09-21T09:00:33.948999Z"}}}